Regional Weather Roundup
Issued by NWS

Home | Current Version | Previous Version | Text Only | Print | Product List | Glossary On
Versions: 1 2 3 4 5 6 7 8 9 10 11 12 13 14 15 16 17 18 19 20 21 22 23 24 25 26 27 28 29 30 31 32 33 34 35 36 37 38 39 40 41 42 43 44 45 46 47 48 49 50
000
ASUS44 KFWD 170601
RWRTX
NORTH TEXAS HOURLY WEATHER ROUNDUP
NATIONAL WEATHER SERVICE FORT WORTH TX
1200 AM CST WED JAN 17 2018

NOTE: "FAIR" INDICATES FEW OR NO CLOUDS BELOW 12,000 FEET WITH NO
SIGNIFICANT WEATHER AND/OR OBSTRUCTIONS TO VISIBILITY.

TXZ118-119-170700-
DALLAS/FORT WORTH METROPLEX

CITY           SKY/WX    TMP DP  RH WIND       PRES   REMARKS
DFW AIRPORT    CLOUDY    19   2  47 NE7       30.74F WCI  10
6HR MIN TEMP:  19; 6HR MAX TEMP:  27;

DALLAS LOVE    CLEAR     20   1  43 N7        30.77F WCI  11
6HR MIN TEMP:  19; 6HR MAX TEMP:  27;

FTW MEACHAM    CLOUDY    16   1  51 N8        30.75F WCI   5
6HR MIN TEMP:  16; 6HR MAX TEMP:  27;

DAL-EXECUTIVE  CLOUDY    17   2  51 N3        30.74F
6HR MIN TEMP:  17; 6HR MAX TEMP:  26;

FTW-ALLIANCE   CLOUDY    13   1  59 NW5       30.75F WCI   5
6HR MIN TEMP:  13; 6HR MAX TEMP:  26;

FTW-NAS-JRB    CLOUDY    19   1  45 N10       30.77F WCI   7
6HR MIN TEMP:  19; 6HR MAX TEMP:  28;

FTW-SPINKS     CLOUDY    15   2  55 N6        30.77F WCI   7
6HR MIN TEMP:  15; 6HR MAX TEMP:  26;

ARLINGTON      CLOUDY    19   1  45 N9        30.75F WCI   8
6HR MIN TEMP:  19; 6HR MAX TEMP:  26;

GRAND PRAIRIE  CLOUDY    19   2  47 N7        30.77F WCI   9
6HR MIN TEMP:  19; 6HR MAX TEMP:  27;

ADDISON        CLOUDY    17   2  50 N5        30.77F WCI  10
6HR MIN TEMP:  17; 6HR MAX TEMP:  25;

MESQUITE       CLOUDY    18   1  49 NE6       30.77F WCI   9
6HR MIN TEMP:  17; 6HR MAX TEMP:  24;

LANCASTER      CLOUDY    17   1  50 N7        30.78F WCI   7
6HR MIN TEMP:  15; 6HR MAX TEMP:  25;

$$

TXZ091>094-102>105-117-120-121-131>134-170700-
NORTH CENTRAL TEXAS

CITY           SKY/WX    TMP DP  RH WIND       PRES   REMARKS
SHRMAN/DENISON NOT AVBL
GAINESVILLE    CLOUDY    10  -1  62 CALM      30.76F
6HR MIN TEMP:   9; 6HR MAX TEMP:  20;

BOWIE          CLOUDY    13  -1  53 N3        30.73F
6HR MIN TEMP:  13; 6HR MAX TEMP:  21;

BRIDGEPORT     PTCLDY     9   3  77 CALM      30.77F
6HR MIN TEMP:   9; 6HR MAX TEMP:  25;

DENTON         CLOUDY    12   1  61 N5        30.76F WCI   4
6HR MIN TEMP:  12; 6HR MAX TEMP:  23;

MCKINNEY       CLOUDY    16   2  54 N5        30.76F WCI   9
6HR MIN TEMP:  14; 6HR MAX TEMP:  23;

BONHAM         CLOUDY    10   1  67 W5        30.76F WCI   1
6HR MIN TEMP:   9; 6HR MAX TEMP:  19;

ROCKWALL       CLOUDY    15   2  56 MISG      30.76F
6HR MIN TEMP:  15; 6HR MAX TEMP:  24;

TERRELL        CLOUDY    16   2  54 N5        30.76F WCI   9
6HR MIN TEMP:  16; 6HR MAX TEMP:  25;

WAXAHACHIE     CLOUDY    16   5  61 N5        30.76F WCI   9
6HR MIN TEMP:  16; 6HR MAX TEMP:  23;

CLEBURNE       CLOUDY    14   1  57 N7        30.75F WCI   4
GRANBURY       CLOUDY    18   5  55 NW3       30.77F
6HR MIN TEMP:  18; 6HR MAX TEMP:  27;

$$

TXZ083>090-098>101-113>116-127>130-139>142-154-155-170700-
WESTERN NORTH TEXAS

CITY           SKY/WX    TMP DP  RH WIND       PRES   REMARKS
WICHITA FALLS  CLOUDY    13  -1  54 CALM      30.75S
6HR MIN TEMP:  10; 6HR MAX TEMP:  21;

WF-KICKAPOO    CLOUDY    15  -2  46 CALM      30.78S
6HR MIN TEMP:  14; 6HR MAX TEMP:  24;

VERNON         CLOUDY    14  -8  38 SE3       30.74S
6HR MIN TEMP:   9; 6HR MAX TEMP:  47;

ABILENE        CLOUDY    15  -2  46 E8        30.68S WCI   4
6HR MIN TEMP:  11; 6HR MAX TEMP:  23;

ABILENE-DYESS  CLOUDY     7  -3  63 CALM      30.68S
6HR MIN TEMP:   6; 6HR MAX TEMP:  24;

CISCO          CLOUDY    16  -2  45 NE5       30.70S WCI   9
RANGER         CLOUDY    12   0  60 N5        30.71F WCI   4
6HR MIN TEMP:  10; 6HR MAX TEMP:  60;

MINERAL WELLS  CLOUDY    13   0  56 CALM      30.73F
6HR MIN TEMP:  13; 6HR MAX TEMP:  24;

STEPHENVILLE   CLOUDY    15   1  54 N5        30.74S WCI   8
6HR MIN TEMP:  15; 6HR MAX TEMP:  25;

COMANCHE       CLOUDY    15   1  55 N5        30.72S WCI   7
6HR MIN TEMP:  14; 6HR MAX TEMP:  25;

BROWNWOOD      CLOUDY    10   0  61 NE5       30.72S WCI   2
COLEMAN        CLOUDY    15  -2  48 NW3       30.69F
6HR MIN TEMP:  14; 6HR MAX TEMP:  26;

$$

TXZ143>147-156>162-174-175-170700-
CENTRAL TEXAS

CITY           SKY/WX    TMP DP  RH WIND       PRES   REMARKS
WACO           CLOUDY    16   8  71 N6        30.76S WCI   7
6HR MIN TEMP:  15; 6HR MAX TEMP:  25;

WACO-MCGREGOR  CLOUDY    13   4  67 NW7       30.76S WCI   3
6HR MIN TEMP:  13; 6HR MAX TEMP:  25;

HILLSBORO      CLOUDY    17   6  60 N5        30.74S WCI  10
6HR MIN TEMP:  13; 6HR MAX TEMP:  23;

CORSICANA      CLOUDY    17   5  59 N7        30.76F WCI   8
6HR MIN TEMP:  17; 6HR MAX TEMP:  24;

MEXIA          CLOUDY    17   5  58 N5        30.74F WCI  10
6HR MIN TEMP:  17; 6HR MAX TEMP:  23;

HEARNE         CLOUDY    19  11  71 CALM      30.77S
6HR MIN TEMP:  17; 6HR MAX TEMP:  25;

CAMERON        CLOUDY    18  10  70 N5        30.75S WCI  11
6HR MIN TEMP:  18; 6HR MAX TEMP:  26;

TEMPLE         CLOUDY    15   6  67 N6        30.74F WCI   6
6HR MIN TEMP:  15; 6HR MAX TEMP:  26;

KILLEEN        CLOUDY    15   5  63 N9        30.70S WCI   3
6HR MIN TEMP:  15; 6HR MAX TEMP:  24;

KILLEEN-SKYLRK CLOUDY    19   6  57 N8        30.73S WCI   9
6HR MIN TEMP:  19; 6HR MAX TEMP:  25;

FORT HOOD      CLOUDY    15   4  62 N9        30.68F WCI   4
6HR MIN TEMP:  15; 6HR MAX TEMP:  25;

GATESVILLE     CLOUDY    18   5  57 CALM      30.75S
LAMPASAS       CLOUDY    17   2  52 NW6       30.69S WCI   8
6HR MIN TEMP:  17; 6HR MAX TEMP:  25;

$$

TXZ095>097-106>112-122>126-135>138-148>153-164>167-170700-
EAST TEXAS

CITY           SKY/WX    TMP DP  RH WIND       PRES   REMARKS
PARIS          CLEAR     12   3  67 N6        30.75F WCI   3
6HR MIN TEMP:  11; 6HR MAX TEMP:  20;

SULPHUR SPRNGS CLEAR     18   4  55 N10       30.78F WCI   6
6HR MIN TEMP:  17; 6HR MAX TEMP:  24;

MOUNT PLEASANT CLEAR     14   3  60 N8        30.77F WCI   3
6HR MIN TEMP:  14; 6HR MAX TEMP:  23;

MINEOLA        CLEAR     16   3  57 N6        30.75F WCI   7
TYLER          CLOUDY    16   3  56 N9        30.73F WCI   4
6HR MIN TEMP:  16; 6HR MAX TEMP:  21;

LONGVIEW       CLEAR     16   6  65 N7        30.73S WCI   6
6HR MIN TEMP:  13; 6HR MAX TEMP:  21;

MARSHALL       CLEAR     15   6  66 CALM      30.75F
6HR MIN TEMP:  15; 6HR MAX TEMP:  23;

ATHENS         CLOUDY    16   3  57 N8        30.74F WCI   5
PALESTINE      CLOUDY    17   9  71 N5        30.76S WCI  10
JACKSONVILLE   CLOUDY    16   7  66 N6        30.72F WCI   8
CENTER         FAIR      17   7  63 N7        30.73R WCI   8
6HR MIN TEMP:  17; 6HR MAX TEMP:  24;

NACOGDOCHES    CLEAR     16   8  71 N8        30.73S WCI   5
6HR MIN TEMP:  16; 6HR MAX TEMP:  23;

LUFKIN         CLEAR     19  10  68 NW5       30.72F WCI  12
6HR MIN TEMP:  19; 6HR MAX TEMP:  24;

$$

SUPPLEMENTAL OBSERVATIONS (NWS FORT WORTH AREA)

CITY           SKY/WX    TMP DP  RH WIND       PRES   REMARKS
$$

SUPPLEMENTAL OBSERVATIONS (NWS NORMAN AREA)

CITY           SKY/WX    TMP DP  RH WIND       PRES   REMARKS
GOODLETT         N/A     11  -8  42 SE8       30.69F WCI  -1
ODELL            N/A     11  -4  49 SE8       30.74S WCI   0
CROWELL          N/A     12  -6  45 SE7       30.72F WCI   1
KNOX CITY        N/A     12  -7  42 SE3       30.72F
SEYMOUR          N/A     12  -4  48 SE3       30.74F
$$

SUPPLEMENTAL OBSERVATIONS (NWS SAN ANGELO AREA)

CITY           SKY/WX    TMP DP  RH WIND       PRES   REMARKS
WEINERT          N/A     13  -6  43 E6        30.72F WCI   4
HASKELL          N/A     15  -7  38 E5        30.71F WCI   7
THROCKMORTON     N/A     13  -2  50 SE3       30.73F
CLYDE            N/A     14  -3  47 NE7



USA.gov is the U.S. government's official web portal to all federal, state and local government web resources and services.